Content
SEND FEEDBACK

Daily
Averages
Monthly
Summary
United States of America

HETTINGER, NORTH DAKOTA


Home > North America > United States > North Dakota
Elevation: 2715 feet     Latitude: 45 59N     Longitude: 102 39W

WEATHER
 
SELECT A DAY
Number of Records: 189,253;   Date Range: 7/1/96 - 9/21/14
 
SHARE

PRINT THIS DATA

[ ← Previous Day ]
WEATHER ALMANAC - JUNE 9, 2014
[ Next Day → ]
[ °C ]   °F
Weather ElementAverageHighLow
Temperature54.1 °F72 °F (2:53 pm)37.9 °F (5:14 am)
Dewpoint42.4 °F48 °F (7:53 am)37 °F (5:14 am)
Humidity70.1 %100 % (5:36 am)30 % (3:53 pm)
Barometer29.98 in30.08 in (1:53 am)29.83 in (10:53 pm)
Wind Speed7.9 mph17.3 mph (11:53 am)
Wind Gust27.6 mph (2:53 pm)
Weather ElementAverage
Visibility7.9 mi
Wind DirectionESE (116.5 °)

Weather ElementTotal
Precipitation---
Heating Degree Days10.1 (Base 65)
Growing Degree Days5 (Base 50)
Averaged from 26 records on June 9, 2014
WEATHER CONDITIONS BREAKOUT
WIND DIRECTION BREAKOUT
WEATHER BY HOUR - JUNE 9, 2014
[ °C ]   °F
Local TimeTemperatureDewpointHumidityBarometerVisibilityWind DirectionWind SpeedGust SpeedPrecipitationEventsConditions
1:53 AM44.1 °F42.1 °F93 %30.08 in10.0 miWNW (290°)3.5 mphClear
2:53 AM45.0 °F43.0 °F93 %30.07 in10.0 miCalmClear
3:53 AM46.9 °F43.0 °F86 %30.05 in10.0 miWest (270°)3.5 mphClear
4:53 AM39.0 °F37.9 °F96 %30.08 in10.0 miCalmClear
5:06 AM39.9 °F37.9 °F93 %30.05 in2.5 miCalmClear
5:14 AM37.9 °F37.0 °F97 %30.05 in4.0 miCalmClear
5:16 AM39.0 °F37.0 °F93 %30.05 in1.2 miCalmClear
5:19 AM39.0 °F37.0 °F93 %30.05 in0.2 miCalmFogFog
5:36 AM41.0 °F41.0 °F100 %30.05 in0.5 miCalmFogFog
5:45 AM39.9 °F39.0 °F97 %30.05 in3.0 miCalmClear
5:53 AM41.0 °F39.0 °F93 %30.08 in4.0 miCalmClear
6:53 AM51.1 °F46.0 °F83 %30.06 in10.0 miCalmClear
7:53 AM57.0 °F48.0 °F72 %30.05 in10.0 miSW (230°)9.2 mphClear
9:53 AM64.9 °F46.0 °F50 %30.04 in10.0 miSSW (210°)11.5 mphClear
10:53 AM68.0 °F46.9 °F47 %30.02 in10.0 miSouth (190°)15.0 mphClear
11:53 AM69.1 °F44.1 °F40 %30.01 in10.0 miSSW (210°)17.3 mph23.0 mphClear
2:53 PM72.0 °F43.0 °F35 %29.93 in10.0 miSouth (190°)16.1 mph27.6 mphClear
3:53 PM72.0 °F39.0 °F30 %29.91 in10.0 miSouth (180°)16.1 mphClear
4:53 PM71.1 °F41.0 °F34 %29.91 in10.0 miSouth (170°)13.8 mph23.0 mphClear
5:53 PM70.0 °F41.0 °F35 %29.90 in10.0 miSouth (170°)16.1 mph23.0 mphClear
6:53 PM68.0 °F44.1 °F42 %29.88 in10.0 miSSE (160°)15.0 mphClear
7:53 PM64.0 °F45.0 °F50 %29.87 in10.0 miSSE (160°)11.5 mphClear
8:53 PM60.1 °F45.0 °F57 %29.86 in10.0 miSSE (150°)13.8 mphClear
9:53 PM57.0 °F46.0 °F67 %29.84 in10.0 miSE (140°)12.7 mphClear
10:53 PM55.0 °F46.0 °F72 %29.83 in10.0 miSSE (150°)16.1 mph24.2 mphClear
11:53 PM55.0 °F46.9 °F74 %29.83 in10.0 miSSE (160°)13.8 mphClear
Hourly data recorded from KHEI, located miles away from Hettinger, North Dakota







STORIES FROM OUR PARTNERS